SCP
0 0 0 0 0 0 0 1 1 2 3 4 5 6 6 6 5 6 6 7 8 8 8 7 9 12 14 16 14 10 9 9 9 9 8 8 8 8 8 8 8 9 9 10
0 0 0 0 0 0 0 1 2 3 4 6 6 6 6 5 5 6 6 6 8 9 8 7 9 13 15 14 11 10 10 10 10 10 10 9 9 9 10 10 10 10 11 12
0 0 0 0 0 0 0 1 2 4 5 6 6 6 6 5 6 6 7 7 8 10 9 7 8 10 12 10 9 9 10 10 11 11 12 12 11 10 11 12 12 12 12 13
0 0 0 0 0 1 1 2 3 4 4 5 5 6 7 7 7 7 8 9 10 10 10 8 7 8 8 7 7 8 9 9 9 10 12 13 12 11 11 10 10 11 13 14
1 0 0 1 1 1 2 3 4 4 4 4 4 5 6 8 9 9 10 11 12 11 11 10 10 9 8 7 6 7 8 8 8 8 9 10 11 11 10 9 8 11 15 18
1 1 1 1 1 1 3 4 4 4 4 4 5 5 6 8 10 10 10 11 12 11 12 12 11 10 9 7 7 9 11 10 8 7 7 8 9 10 10 9 9 11 16 19
1 1 1 1 1 2 3 4 4 5 5 5 6 7 8 8 8 8 8 8 8 8 10 11 10 9 8 8 9 12 13 11 8 7 7 7 8 8 9 9 9 10 14 16
1 2 2 2 2 2 4 5 5 5 5 6 7 7 7 7 6 6 5 5 5 5 6 8 8 8 8 8 11 12 11 9 8 8 7 7 7 7 7 8 7 8 10 12
2 2 3 3 3 3 4 4 4 4 6 7 7 7 7 8 8 6 4 4 5 5 5 5 6 7 7 8 9 9 8 7 8 8 8 8 8 7 7 7 7 8 8 9
3 3 3 3 3 3 4 4 3 4 7 9 7 6 6 9 9 7 4 5 5 5 4 5 6 6 6 7 7 7 7 7 7 7 8 8 8 8 7 7 8 8 7 6
4 4 4 3 3 3 4 4 3 5 8 8 6 5 5 7 8 7 5 5 6 5 5 5 6 7 7 7 7 7 6 6 6 7 7 7 8 7 7 6 6 5 5 4
3 4 3 3 3 3 4 3 3 6 8 8 6 5 5 5 6 6 6 6 7 6 6 6 7 7 8 9 9 8 7 6 6 6 6 6 7 7 6 5 3 3 3 3
3 3 3 2 3 4 4 3 4 7 9 8 6 5 5 4 4 5 5 6 7 7 7 7 8 9 10 12 12 11 8 7 7 6 6 5 6 6 5 4 3 2 2 2
3 3 3 3 4 4 4 3 4 7 8 7 6 5 4 4 4 4 4 5 6 7 7 8 9 11 13 15 15 13 10 8 8 7 5 4 5 5 5 5 4 3 2 1
2 2 2 3 4 4 3 2 4 5 6 6 6 5 5 7 6 5 4 5 7 7 7 9 12 15 18 18 16 13 11 9 8 5 4 4 4 4 4 4 4 4 3 2
2 2 2 2 3 2 2 2 2 4 6 7 6 6 7 9 8 6 6 6 7 7 7 9 14 19 20 18 14 11 9 7 5 3 3 3 3 3 4 4 4 4 3 2
2 2 2 2 2 2 2 2 2 3 5 6 7 7 8 9 9 8 7 7 7 6 6 9 14 18 18 15 11 9 6 4 3 2 2 3 3 3 3 3 3 3 3 2
1 2 2 2 2 2 3 3 3 3 3 4 6 7 8 9 9 9 8 7 7 6 7 8 10 12 12 10 8 6 4 3 2 2 2 3 3 3 3 3 2 3 3 2
1 1 2 2 2 3 4 5 4 3 2 3 5 6 8 8 9 9 9 8 7 6 6 6 6 7 7 5 4 3 3 2 2 2 3 3 3 3 3 2 2 2 2 2
1 1 1 2 2 3 5 6 5 3 3 4 5 6 7 7 7 8 8 8 7 7 6 4 4 5 4 3 3 3 2 2 2 3 4 4 4 3 3 3 2 2 2 3
1 1 1 2 2 3 6 6 4 2 3 4 4 5 7 8 8 8 7 7 7 7 6 5 5 5 4 3 3 3 3 2 2 3 4 4 3 3 3 3 3 3 3 4
1 1 1 2 3 4 5 5 3 2 3 3 4 5 7 9 8 8 8 7 6 5 5 4 4 3 3 3 3 3 2 2 2 2 3 3 3 4 4 4 5 5 6 7
3 3 3 3 3 3 4 3 2 2 2 3 4 6 8 8 7 7 7 7 5 4 3 3 2 2 2 2 3 3 3 2 2 3 4 4 4 4 5 5 6 6 7 7
7 7 5 4 3 3 3 2 2 3 3 4 6 7 8 7 6 4 4 5 4 4 4 3 2 1 1 2 3 3 3 3 4 4 5 4 4 4 4 5 5 5 4 4
10 9 7 5 4 3 3 3 3 3 3 3 5 6 6 6 5 4 4 4 5 5 5 4 2 2 2 4 4 5 4 3 4 4 4 3 3 3 3 3 3 4 4 4
10 8 7 5 3 3 3 3 3 3 2 2 2 3 4 4 5 5 5 5 6 7 7 6 4 4 4 5 6 5 5 3 3 3 2 2 2 2 2 3 4 5 6 7
8 7 6 4 2 2 2 2 2 2 1 1 1 2 2 3 4 5 5 6 7 8 7 7 6 6 5 6 6 6 5 4 3 2 2 2 2 2 2 3 5 6 6 6
Wind_Speed
15 15 12 11 13 13 12 11 10 7 4 3 0 1 2 5 5 6 5 5 6 4 3 3 3 3 3 3 3 3 3 4 4 4 3 3 3 3 3 3 3 2 2 3
16 16 14 13 13 14 14 11 8 8 3 1 2 3 4 5 5 5 5 4 5 4 3 3 2 2 2 2 3 3 3 3 3 3 3 3 3 3 3 3 2 2 2 2
13 14 14 14 12 11 10 8 7 4 2 1 3 2 3 4 5 5 4 4 4 3 3 2 2 1 0 2 2 3 3 3 3 3 3 3 4 3 2 2 2 2 2 2
11 12 15 9 9 10 8 5 3 2 2 3 3 4 5 5 6 5 4 5 4 2 2 2 2 1 0 1 1 2 2 2 3 3 3 3 3 3 3 3 2 2 3 3
10 12 12 10 8 8 7 2 4 3 4 4 4 4 4 6 6 5 5 4 3 3 3 2 1 1 1 1 1 1 1 2 2 2 2 3 3 3 3 3 3 3 3 3
11 12 11 7 6 8 8 4 5 5 4 4 4 1 3 5 6 6 5 4 3 3 3 3 3 2 2 2 2 1 1 1 1 1 2 2 2 2 2 2 3 3 3 3
12 12 7 5 7 6 5 3 6 7 6 5 5 4 4 6 6 5 5 4 4 4 3 3 3 3 3 3 2 3 3 2 1 1 2 2 2 2 2 2 3 3 3 3
10 11 6 4 4 3 3 4 5 6 5 6 5 4 5 5 5 5 4 3 3 3 3 3 3 3 3 2 3 2 2 2 1 1 3 2 2 2 3 3 3 3 3 3
3 3 3 5 5 5 5 3 3 4 5 5 4 4 4 4 4 3 2 2 2 2 2 2 2 2 1 1 1 1 1 1 1 2 1 2 2 2 3 3 4 3 3 3
4 4 3 4 4 5 5 5 5 5 4 4 4 3 3 3 2 1 1 1 0 0 0 1 1 1 1 1 1 1 1 1 1 2 2 2 1 2 2 2 3 3 3 2
5 5 5 4 4 5 6 4 5 5 5 4 4 3 3 2 2 1 1 0 0 0 1 1 1 0 1 1 1 1 1 2 2 2 2 2 1 1 1 0 1 2 1 1
5 5 5 6 6 5 5 4 5 5 7 6 4 3 3 3 3 2 2 1 1 1 1 1 1 1 1 0 0 1 2 2 3 3 2 2 2 1 1 1 2 1 1 1
5 6 6 8 7 7 6 5 4 4 5 5 4 3 3 3 3 3 3 2 2 2 2 2 2 2 1 1 1 2 3 3 3 3 3 3 2 2 2 1 1 2 3 3
6 6 6 6 6 6 6 6 5 4 5 4 3 3 3 4 3 3 3 3 2 2 2 2 2 2 1 1 2 3 4 4 4 3 3 3 3 3 3 3 2 2 3 5
6 4 4 5 4 5 5 4 5 5 5 3 3 4 4 4 4 3 3 3 3 3 2 2 2 2 1 2 2 3 4 3 3 3 3 3 3 3 3 3 2 3 2 3
6 4 4 5 4 4 5 4 4 5 5 5 4 4 5 5 4 3 3 3 2 3 2 2 2 2 2 2 3 3 3 4 4 4 4 3 3 3 2 2 2 1 1 1
6 4 3 4 5 5 5 4 5 5 7 7 5 5 5 5 4 3 3 3 2 2 2 1 1 2 2 2 2 3 3 3 4 4 4 3 3 2 2 2 2 2 1 1
5 5 4 4 4 5 5 5 4 5 6 5 5 5 5 4 4 3 3 3 3 2 2 2 2 2 2 2 2 3 3 4 3 3 2 2 3 2 2 3 2 2 1 1
6 6 5 3 3 4 5 5 5 5 6 5 5 5 4 3 3 4 4 3 3 2 2 2 2 3 2 1 2 2 4 4 4 3 3 3 3 3 2 2 2 2 2 1
5 6 5 4 4 4 4 5 5 4 5 5 4 4 4 4 3 3 3 3 2 2 2 2 2 2 3 2 3 4 4 4 3 3 3 3 3 3 3 3 3 2 2 2
4 4 4 4 4 4 4 4 4 4 5 5 4 3 4 4 3 3 3 2 2 3 3 2 1 2 2 3 5 4 4 3 3 3 3 3 3 3 3 3 3 2 2 2
3 4 4 3 4 4 4 4 4 4 4 4 3 3 3 4 3 2 2 1 1 2 2 1 1 2 4 5 3 3 3 3 3 2 3 3 3 3 3 3 2 2 2 2
3 3 3 3 4 4 4 4 4 3 3 3 3 3 3 3 3 3 2 2 2 2 2 1 1 2 4 4 3 3 3 3 3 2 2 2 2 3 3 2 2 1 1 1
3 3 3 3 3 3 3 4 4 3 3 3 2 2 2 2 2 2 2 2 2 1 2 0 2 2 4 3 3 2 2 2 2 3 2 2 3 2 2 2 2 1 1 1
3 3 3 3 3 2 2 3 3 3 3 2 1 2 2 1 2 2 3 2 1 2 1 1 3 5 4 3 2 1 1 2 3 3 2 3 3 2 2 2 2 2 1 0
3 2 2 3 3 2 1 2 2 2 2 2 2 1 2 2 2 1 1 1 2 3 3 1 1 2 2 2 2 2 1 1 1 2 3 3 3 3 3 3 3 3 2 2
3 2 1 2 2 2 1 1 2 1 1 1 1 2 2 2 2 2 3 2 2 2 3 2 2 2 2 2 2 3 2 2 2 2 2 2 3 3 3 3 3 3 2 2
Wind_Direction
273 275 274 275 277 273 267 268 268 275 258 268 149 83 98 111 106 101 95 93 91 94 103 121 132 138 147 175 186 185 185 193 195 202 203 205 207 196 195 205 217 218 227 229
272 272 274 264 259 259 260 262 260 263 273 95 71 85 82 94 99 99 105 99 93 97 94 88 93 118 149 195 196 186 199 204 189 201 208 210 208 196 197 207 227 220 229 236
273 275 273 264 258 261 266 267 273 275 293 69 80 70 99 106 100 95 92 91 87 90 101 108 103 73 148 216 204 185 188 193 190 200 206 214 218 198 194 206 211 219 226 223
269 271 262 277 296 288 279 291 314 339 59 43 61 70 60 75 83 77 75 78 79 65 85 97 101 118 233 246 189 189 192 199 201 203 208 199 203 200 196 206 209 215 221 224
262 262 257 271 295 314 306 301 352 358 31 47 60 88 76 65 75 72 65 67 69 56 51 68 95 90 95 44 51 182 206 216 214 208 213 207 212 204 194 209 220 224 216 214
257 262 262 278 316 316 288 251 356 2 16 23 27 27 58 59 66 65 54 62 64 66 59 56 51 45 63 71 54 22 7 335 284 223 225 221 216 216 211 216 226 235 229 213
253 261 268 312 322 302 273 329 3 15 8 20 35 47 54 56 57 60 49 58 59 62 60 59 56 57 41 40 22 9 14 12 4 329 247 223 212 202 214 230 238 235 235 218
250 257 263 355 326 353 21 12 16 16 17 32 41 41 48 52 52 57 51 50 55 62 68 70 72 70 55 35 17 22 21 7 347 308 280 255 212 210 216 232 241 236 228 227
281 280 8 40 31 22 15 359 12 7 20 32 31 27 37 42 47 57 63 55 52 71 69 66 67 75 55 27 36 13 358 339 318 284 267 279 257 231 220 224 232 230 219 222
301 289 343 36 24 10 359 348 358 9 7 10 13 12 24 33 28 22 50 57 8 63 69 52 35 16 6 15 26 359 327 306 277 264 259 250 249 242 234 239 236 233 229 230
283 307 322 347 1 356 323 340 349 352 348 359 4 5 5 2 1 343 312 317 282 248 214 172 132 355 346 1 360 316 290 283 272 255 245 247 229 269 254 241 249 250 266 268
298 322 311 317 328 327 325 330 333 345 346 348 353 351 350 341 331 318 299 286 263 270 283 278 261 269 285 263 270 282 275 279 284 278 257 231 206 215 5 211 172 177 187 194
310 312 308 312 322 340 337 331 332 341 328 328 355 6 346 325 319 320 314 303 283 274 269 265 265 264 277 251 235 256 267 270 271 272 275 273 248 216 212 213 222 233 232 217
314 312 305 305 316 331 338 342 336 344 337 338 353 351 335 318 319 321 314 305 301 286 275 267 271 265 250 239 237 250 260 259 261 265 263 261 258 247 235 220 212 227 233 222
304 299 289 294 312 329 333 344 345 339 330 338 348 343 338 325 320 318 324 320 314 294 285 287 293 289 267 252 253 262 273 274 279 280 272 265 265 257 253 249 223 204 202 202
287 296 305 317 326 328 330 341 342 322 325 329 331 332 327 317 317 320 323 319 306 301 293 287 283 296 291 272 266 258 262 265 270 276 273 265 253 262 264 265 273 234 203 194
300 310 316 313 311 317 327 337 329 324 319 315 322 325 321 316 322 334 330 325 327 318 310 304 302 307 287 276 275 273 271 270 268 273 271 277 278 276 275 263 257 254 257 193
299 299 298 295 306 316 315 315 317 315 311 314 324 322 318 319 322 327 327 329 327 324 319 323 332 313 295 298 302 288 281 267 259 265 273 272 273 269 263 262 261 258 226 196
299 299 298 300 305 301 305 313 315 315 320 325 325 325 325 325 325 325 325 317 307 305 324 353 333 300 302 340 310 282 275 269 264 262 265 264 263 268 272 272 272 273 273 233
292 290 292 297 298 300 305 306 305 311 318 320 322 330 331 325 324 319 314 310 325 349 349 351 329 316 315 328 298 275 271 266 268 273 271 269 269 268 266 265 266 269 270 272
298 293 292 305 310 304 303 311 313 311 308 309 316 325 330 326 319 307 298 311 22 11 340 327 307 318 325 311 273 265 270 268 264 268 270 270 275 276 271 267 265 268 269 270
308 302 301 314 315 311 313 311 302 298 302 310 313 324 327 326 325 323 326 342 10 4 322 324 344 348 338 314 290 282 278 283 275 268 272 275 278 281 280 285 283 278 275 271
320 322 323 326 319 312 312 308 302 298 301 306 313 318 321 330 328 329 344 8 18 360 325 1 353 338 326 304 295 291 298 304 301 292 285 286 289 283 287 290 287 275 258 260
319 329 318 308 299 294 293 297 297 297 293 291 309 321 322 325 334 342 7 51 58 320 322 325 235 263 271 268 280 287 302 319 325 325 317 304 290 291 303 311 308 300 279 274
305 302 298 293 284 278 279 295 294 283 283 295 304 323 328 339 342 352 358 11 31 284 299 271 243 247 258 276 285 285 302 327 325 324 320 315 314 322 327 321 324 329 327 338
299 288 289 286 294 294 282 279 289 304 327 330 328 334 350 360 350 345 331 337 351 326 322 340 319 265 291 307 317 322 319 310 321 333 332 335 350 357 356 353 359 11 29 43
282 286 275 281 286 286 285 295 302 305 322 334 339 343 357 7 1 355 346 339 347 352 360 6 359 356 347 339 337 335 336 350 360 349 337 338 360 9 8 9 18 27 35 47